QPF
0.00 0.00 0.00 0.00 0.00 0.00 0.00 0.00 0.00 0.00 0.00 0.00 0.00 0.00 0.00 0.00 0.00 0.00 0.00 0.00 0.00 0.00 0.00 0.00 0.00 0.00 0.00 0.00 0.00 0.00 0.00 0.00 0.00 0.00 0.00 0.00 0.00 0.00 0.00 0.00 0.00 0.00 0.00 0.00
0.00 0.00 0.00 0.00 0.00 0.00 0.00 0.00 0.00 0.00 0.00 0.00 0.00 0.00 0.00 0.00 0.00 0.00 0.00 0.00 0.00 0.00 0.00 0.00 0.00 0.00 0.00 0.00 0.00 0.00 0.00 0.00 0.00 0.00 0.00 0.00 0.00 0.00 0.00 0.00 0.00 0.00 0.00 0.06
0.00 0.00 0.00 0.00 0.00 0.00 0.00 0.00 0.00 0.00 0.00 0.00 0.00 0.00 0.00 0.00 0.00 0.00 0.00 0.00 0.00 0.00 0.00 0.00 0.00 0.00 0.00 0.00 0.00 0.00 0.00 0.01 0.01 0.00 0.01 0.01 0.03 0.01 0.01 0.02 0.00 0.04 0.12 0.31
0.00 0.00 0.00 0.00 0.00 0.00 0.00 0.00 0.00 0.00 0.00 0.00 0.00 0.00 0.00 0.00 0.00 0.00 0.00 0.00 0.00 0.00 0.00 0.00 0.00 0.00 0.00 0.00 0.00 0.00 0.00 0.02 0.03 0.02 0.01 0.00 0.03 0.15 0.13 0.13 0.22 0.20 0.18 0.27
0.00 0.00 0.00 0.00 0.00 0.00 0.00 0.00 0.00 0.00 0.00 0.00 0.00 0.00 0.00 0.00 0.00 0.00 0.00 0.00 0.00 0.00 0.00 0.00 0.00 0.00 0.00 0.00 0.00 0.00 0.00 0.02 0.02 0.02 0.00 0.03 0.03 0.16 0.24 0.35 0.37 0.17 0.21 0.30
0.00 0.00 0.00 0.00 0.00 0.00 0.00 0.00 0.00 0.00 0.00 0.00 0.00 0.00 0.00 0.00 0.00 0.00 0.00 0.00 0.00 0.00 0.00 0.00 0.00 0.00 0.00 0.00 0.00 0.00 0.00 0.00 0.00 0.00 0.00 0.01 0.07 0.16 0.24 0.38 0.28 0.19 0.21 0.24
0.00 0.00 0.00 0.00 0.00 0.00 0.00 0.00 0.00 0.00 0.00 0.00 0.00 0.00 0.00 0.00 0.00 0.00 0.00 0.00 0.00 0.00 0.00 0.00 0.00 0.00 0.00 0.00 0.00 0.00 0.00 0.00 0.01 0.07 0.03 0.05 0.09 0.08 0.07 0.14 0.21 0.12 0.27 0.29
0.00 0.00 0.00 0.00 0.00 0.00 0.00 0.00 0.00 0.00 0.00 0.00 0.00 0.00 0.00 0.00 0.00 0.00 0.00 0.00 0.00 0.00 0.00 0.00 0.00 0.00 0.00 0.00 0.00 0.00 0.00 0.00 0.03 0.05 0.09 0.11 0.09 0.06 0.06 0.13 0.13 0.13 0.32 0.15
0.00 0.00 0.00 0.00 0.00 0.00 0.00 0.00 0.00 0.00 0.00 0.00 0.00 0.00 0.00 0.00 0.00 0.00 0.00 0.00 0.00 0.00 0.00 0.00 0.00 0.00 0.00 0.00 0.00 0.00 0.00 0.00 0.00 0.01 0.02 0.00 0.01 0.05 0.09 0.13 0.17 0.19 0.25 0.13
0.00 0.00 0.00 0.00 0.00 0.00 0.00 0.00 0.00 0.00 0.00 0.00 0.00 0.00 0.00 0.00 0.00 0.00 0.00 0.00 0.00 0.00 0.00 0.00 0.00 0.00 0.00 0.00 0.00 0.00 0.00 0.00 0.01 0.05 0.01 0.00 0.02 0.05 0.09 0.06 0.09 0.15 0.09 0.03
0.00 0.00 0.00 0.00 0.00 0.00 0.00 0.00 0.00 0.00 0.00 0.00 0.00 0.00 0.00 0.00 0.00 0.00 0.00 0.00 0.00 0.00 0.00 0.00 0.00 0.00 0.00 0.00 0.00 0.00 0.00 0.00 0.03 0.05 0.00 0.00 0.00 0.01 0.05 0.06 0.07 0.07 0.02 0.00
0.00 0.00 0.00 0.00 0.00 0.00 0.00 0.00 0.00 0.00 0.00 0.00 0.00 0.00 0.00 0.00 0.00 0.00 0.00 0.00 0.00 0.00 0.00 0.00 0.00 0.00 0.00 0.00 0.00 0.00 0.00 0.01 0.08 0.10 0.02 0.00 0.02 0.03 0.07 0.10 0.06 0.05 0.01 0.00
0.00 0.00 0.00 0.00 0.00 0.00 0.00 0.00 0.00 0.00 0.00 0.00 0.00 0.00 0.00 0.00 0.00 0.00 0.00 0.00 0.00 0.00 0.00 0.00 0.00 0.00 0.00 0.00 0.00 0.00 0.01 0.13 0.12 0.09 0.02 0.01 0.04 0.07 0.10 0.12 0.05 0.02 0.00 0.00
0.00 0.00 0.00 0.00 0.00 0.00 0.00 0.00 0.00 0.00 0.00 0.00 0.00 0.00 0.00 0.00 0.00 0.00 0.00 0.00 0.00 0.00 0.00 0.00 0.00 0.00 0.00 0.00 0.00 0.03 0.26 0.37 0.25 0.17 0.04 0.03 0.03 0.07 0.08 0.03 0.01 0.00 0.00 0.00
0.00 0.00 0.00 0.00 0.00 0.00 0.00 0.00 0.00 0.00 0.00 0.00 0.00 0.00 0.00 0.00 0.00 0.00 0.00 0.00 0.00 0.00 0.00 0.00 0.00 0.00 0.00 0.00 0.03 0.20 0.35 0.32 0.27 0.18 0.07 0.04 0.02 0.04 0.03 0.01 0.00 0.00 0.00 0.00
0.00 0.00 0.00 0.00 0.00 0.00 0.00 0.00 0.00 0.00 0.00 0.00 0.00 0.00 0.00 0.00 0.00 0.00 0.00 0.00 0.00 0.00 0.00 0.00 0.00 0.00 0.00 0.04 0.09 0.23 0.30 0.26 0.15 0.13 0.05 0.02 0.01 0.02 0.02 0.01 0.00 0.00 0.00 0.00
0.00 0.00 0.00 0.00 0.00 0.00 0.00 0.00 0.00 0.00 0.00 0.00 0.00 0.00 0.00 0.00 0.00 0.00 0.00 0.00 0.00 0.00 0.00 0.00 0.00 0.00 0.00 0.03 0.04 0.10 0.10 0.05 0.04 0.05 0.01 0.00 0.01 0.01 0.01 0.01 0.00 0.00 0.00 0.00
0.00 0.00 0.00 0.00 0.00 0.00 0.00 0.00 0.00 0.00 0.00 0.00 0.00 0.00 0.00 0.00 0.00 0.00 0.00 0.00 0.00 0.00 0.00 0.00 0.00 0.00 0.00 0.04 0.04 0.02 0.05 0.03 0.01 0.05 0.04 0.04 0.02 0.03 0.01 0.00 0.00 0.00 0.00 0.00
0.00 0.00 0.00 0.00 0.00 0.00 0.00 0.00 0.00 0.00 0.00 0.00 0.00 0.00 0.00 0.00 0.00 0.00 0.00 0.00 0.00 0.01 0.01 0.00 0.00 0.00 0.00 0.01 0.01 0.01 0.00 0.00 0.00 0.02 0.04 0.05 0.01 0.01 0.00 0.00 0.00 0.00 0.00 0.00
0.00 0.00 0.00 0.00 0.00 0.00 0.00 0.00 0.00 0.00 0.00 0.00 0.00 0.00 0.00 0.00 0.00 0.00 0.01 0.01 0.00 0.00 0.00 0.00 0.00 0.00 0.00 0.01 0.00 0.01 0.01 0.00 0.01 0.02 0.06 0.02 0.00 0.00 0.00 0.00 0.00 0.00 0.00 0.00
0.00 0.00 0.00 0.00 0.00 0.00 0.00 0.00 0.00 0.00 0.00 0.00 0.00 0.00 0.00 0.00 0.00 0.00 0.00 0.00 0.00 0.00 0.00 0.00 0.00 0.00 0.00 0.00 0.00 0.00 0.00 0.00 0.01 0.01 0.00 0.00 0.00 0.00 0.00 0.00 0.00 0.00 0.00 0.00
0.00 0.00 0.00 0.00 0.00 0.00 0.00 0.00 0.00 0.00 0.00 0.00 0.00 0.00 0.00 0.00 0.00 0.00 0.00 0.00 0.00 0.00 0.00 0.00 0.00 0.00 0.00 0.00 0.00 0.00 0.00 0.00 0.00 0.00 0.00 0.00 0.00 0.00 0.00 0.00 0.00 0.00 0.00 0.00
0.00 0.00 0.00 0.00 0.00 0.00 0.00 0.00 0.00 0.00 0.00 0.00 0.00 0.00 0.00 0.00 0.00 0.00 0.00 0.00 0.00 0.00 0.00 0.00 0.00 0.00 0.00 0.00 0.00 0.00 0.00 0.00 0.01 0.00 0.00 0.00 0.00 0.00 0.00 0.00 0.00 0.00 0.00 0.00
0.00 0.00 0.00 0.00 0.00 0.00 0.00 0.00 0.00 0.00 0.00 0.00 0.00 0.00 0.00 0.00 0.00 0.00 0.00 0.00 0.00 0.00 0.00 0.00 0.00 0.00 0.00 0.00 0.00 0.00 0.00 0.00 0.00 0.00 0.00 0.00 0.00 0.00 0.00 0.00 0.00 0.00 0.00 0.00
0.00 0.00 0.00 0.00 0.00 0.00 0.00 0.00 0.00 0.00 0.00 0.00 0.00 0.00 0.00 0.00 0.00 0.00 0.00 0.00 0.00 0.00 0.00 0.00 0.00 0.00 0.00 0.01 0.03 0.07 0.03 0.00 0.01 0.00 0.00 0.00 0.00 0.00 0.00 0.00 0.00 0.00 0.00 0.00
0.00 0.00 0.00 0.00 0.00 0.00 0.00 0.00 0.00 0.00 0.00 0.00 0.00 0.00 0.00 0.00 0.00 0.00 0.00 0.00 0.00 0.00 0.00 0.00 0.00 0.00 0.00 0.03 0.08 0.13 0.02 0.00 0.03 0.03 0.01 0.00 0.00 0.00 0.00 0.00 0.00 0.00 0.00 0.00
MSLP
1010.95 1011.79 1012.22 1012.21 1012.34 1012.13 1012.00 1011.78 1011.22 1009.70 1008.59 1008.57 1007.96 1007.65 1006.54 1005.63 1005.37 1005.38 1005.46 1005.13 1004.86 1004.77 1003.89 1004.12 1004.94 1005.36 1005.55 1005.89 1006.35 1006.57 1007.34 1007.99 1008.89 1009.65 1010.25 1010.43 1010.53 1010.44 1010.59 1010.48 1010.28 1010.71 1011.14 1011.59
1011.52 1011.57 1011.31 1011.55 1011.55 1011.63 1011.47 1011.35 1010.67 1009.52 1008.78 1008.54 1008.23 1007.85 1006.86 1006.28 1005.63 1005.12 1004.76 1004.67 1004.19 1003.91 1003.75 1004.11 1004.22 1004.97 1005.36 1005.23 1005.40 1006.15 1006.78 1007.48 1008.10 1008.68 1009.00 1009.66 1009.93 1010.10 1009.97 1009.90 1010.03 1010.65 1011.14 1011.82
1011.73 1010.91 1010.66 1010.64 1010.39 1010.82 1010.55 1010.48 1009.94 1009.84 1009.24 1009.01 1008.91 1008.36 1007.61 1006.16 1005.43 1004.66 1003.93 1003.46 1003.34 1003.21 1003.21 1003.46 1003.94 1003.98 1004.75 1004.99 1005.39 1005.80 1006.52 1007.38 1007.62 1007.97 1008.85 1009.63 1009.84 1010.20 1010.27 1010.28 1010.44 1011.06 1011.24 1011.72
1011.37 1010.68 1010.49 1010.25 1010.12 1009.76 1009.78 1009.12 1009.53 1009.78 1010.03 1010.38 1009.96 1010.10 1008.71 1007.22 1006.07 1004.97 1004.13 1003.54 1002.98 1002.65 1002.66 1002.77 1003.07 1003.70 1003.80 1004.60 1005.16 1005.77 1006.45 1006.69 1007.08 1007.72 1008.33 1008.64 1009.15 1009.93 1009.88 1009.97 1010.51 1010.11 1011.00 1011.81
1011.05 1010.44 1010.02 1009.84 1009.09 1009.09 1009.21 1008.95 1009.77 1010.23 1010.89 1011.05 1010.82 1010.76 1009.16 1008.09 1006.91 1005.44 1004.44 1003.84 1003.56 1004.01 1002.17 1002.44 1002.76 1003.23 1004.09 1004.65 1004.86 1005.40 1006.14 1007.03 1007.13 1007.75 1007.78 1008.28 1009.08 1009.45 1009.90 1010.32 1010.39 1010.90 1011.52 1011.58
1010.83 1009.91 1009.54 1008.69 1008.17 1008.46 1008.91 1009.54 1010.54 1011.64 1012.11 1012.39 1011.83 1011.50 1010.34 1008.97 1008.04 1006.50 1005.14 1003.92 1003.72 1003.61 1003.85 1002.93 1003.11 1003.29 1004.05 1004.74 1005.08 1005.46 1005.92 1006.60 1006.96 1007.48 1007.75 1008.19 1008.70 1009.30 1009.61 1010.24 1010.65 1011.42 1011.87 1012.45
1010.80 1009.95 1008.93 1008.47 1008.33 1008.55 1009.47 1010.99 1012.37 1013.52 1013.95 1013.68 1012.10 1011.71 1010.63 1008.67 1007.74 1006.90 1005.96 1004.86 1004.40 1004.16 1004.31 1004.53 1003.66 1004.12 1004.11 1004.67 1005.28 1005.71 1006.00 1006.58 1006.74 1007.12 1007.47 1007.92 1008.22 1008.72 1009.20 1009.74 1010.26 1011.16 1011.94 1012.55
1011.68 1010.46 1009.29 1008.64 1008.64 1008.91 1009.90 1011.30 1013.04 1014.26 1015.08 1013.98 1012.34 1011.32 1009.47 1008.15 1007.34 1006.84 1006.14 1005.33 1004.64 1004.53 1004.63 1004.92 1005.18 1005.04 1004.71 1005.09 1005.53 1005.79 1006.05 1006.41 1006.72 1007.20 1007.72 1008.03 1008.23 1008.92 1009.02 1009.77 1010.40 1011.09 1011.77 1011.72
1011.91 1010.91 1009.59 1008.99 1008.74 1009.12 1010.47 1011.69 1012.86 1014.05 1014.96 1014.70 1012.97 1011.14 1009.35 1008.13 1007.30 1006.69 1006.08 1005.79 1005.52 1005.17 1005.18 1005.13 1005.27 1005.38 1005.49 1005.55 1005.51 1005.47 1005.88 1006.73 1007.32 1007.55 1007.74 1007.97 1008.36 1008.69 1009.14 1009.69 1010.41 1010.93 1011.63 1012.08
1012.31 1011.81 1010.66 1009.83 1009.49 1009.91 1010.54 1011.85 1013.25 1014.61 1015.59 1015.27 1013.58 1012.28 1010.77 1009.24 1008.34 1007.82 1007.39 1007.14 1006.75 1006.10 1005.66 1005.40 1005.24 1005.34 1005.40 1005.65 1005.62 1006.19 1006.59 1007.12 1007.60 1008.18 1008.40 1008.54 1008.75 1009.03 1009.38 1009.59 1010.10 1010.76 1011.13 1011.69
1012.84 1013.05 1012.24 1011.29 1011.63 1011.71 1011.82 1013.08 1014.16 1015.27 1015.83 1015.74 1014.71 1012.87 1011.15 1010.41 1009.53 1009.09 1008.84 1008.72 1008.10 1007.63 1006.97 1006.16 1005.78 1005.27 1005.41 1005.60 1006.30 1006.53 1007.16 1007.53 1007.90 1008.37 1008.61 1009.14 1009.76 1009.82 1010.46 1010.69 1011.20 1011.50 1011.81 1011.93
1013.96 1014.42 1014.35 1013.67 1012.81 1012.50 1013.02 1014.23 1014.80 1016.02 1016.47 1016.34 1015.54 1012.71 1011.10 1010.94 1010.72 1010.36 1010.13 1009.51 1008.98 1008.43 1007.60 1007.09 1006.49 1006.12 1005.91 1006.10 1006.54 1007.00 1007.70 1007.80 1008.03 1008.46 1009.18 1009.65 1009.86 1010.28 1010.87 1011.83 1011.58 1011.66 1012.02 1012.31
1014.75 1015.46 1015.57 1014.64 1014.12 1013.59 1014.11 1014.75 1015.05 1015.83 1016.40 1016.46 1015.93 1013.27 1011.13 1011.52 1011.35 1010.93 1010.83 1010.22 1009.77 1008.98 1008.07 1007.51 1007.08 1006.91 1006.91 1007.01 1007.52 1007.94 1007.72 1008.03 1008.16 1008.37 1008.79 1009.57 1010.29 1010.70 1011.17 1011.31 1011.87 1011.64 1011.96 1012.06
1015.24 1016.35 1016.48 1016.26 1015.73 1015.50 1015.34 1015.28 1015.28 1015.63 1016.41 1016.37 1015.77 1014.26 1012.71 1012.70 1012.77 1012.49 1012.15 1011.68 1011.12 1010.65 1009.72 1008.94 1008.28 1007.69 1006.97 1006.89 1008.03 1008.78 1009.43 1009.83 1010.24 1009.63 1009.20 1009.80 1010.22 1010.44 1010.92 1010.98 1011.12 1011.31 1011.71 1012.20
1016.72 1017.27 1017.10 1016.59 1016.09 1015.73 1015.51 1015.23 1015.14 1015.51 1015.59 1016.06 1015.36 1015.05 1014.20 1013.96 1014.14 1013.82 1013.30 1012.52 1011.78 1011.06 1010.46 1009.98 1009.57 1008.91 1007.82 1007.67 1008.09 1008.47 1008.88 1009.47 1009.62 1007.19 1010.25 1010.70 1010.34 1010.59 1010.89 1011.13 1011.07 1011.43 1011.82 1012.17
1017.85 1018.10 1018.00 1017.48 1016.74 1016.26 1015.69 1015.02 1014.74 1014.83 1015.23 1015.62 1015.47 1015.23 1015.45 1014.95 1014.74 1014.34 1014.26 1013.67 1013.07 1012.46 1011.52 1010.79 1010.18 1009.49 1008.74 1008.24 1008.29 1008.50 1008.77 1008.64 1008.15 1008.95 1009.54 1010.24 1010.90 1010.99 1011.42 1012.05 1011.67 1011.63 1011.97 1012.13
1018.67 1018.96 1019.09 1018.45 1017.61 1016.86 1016.14 1014.93 1014.71 1014.87 1015.52 1015.80 1015.95 1016.34 1015.93 1015.66 1015.47 1015.45 1015.16 1014.64 1013.98 1013.28 1012.45 1011.48 1010.93 1010.61 1010.09 1009.37 1008.81 1008.60 1008.22 1008.31 1008.31 1008.96 1010.08 1010.90 1010.94 1011.08 1011.43 1011.73 1011.80 1011.96 1012.12 1012.22
1018.77 1019.41 1019.59 1019.57 1018.61 1017.60 1015.70 1014.88 1014.69 1015.37 1016.04 1016.28 1016.33 1016.21 1015.95 1015.77 1015.66 1015.73 1015.54 1015.18 1014.44 1013.87 1013.31 1012.45 1011.85 1011.19 1010.77 1010.62 1009.77 1009.79 1009.77 1009.41 1009.42 1009.51 1010.29 1010.79 1011.17 1011.05 1011.28 1011.73 1012.06 1012.15 1012.17 1012.49
1018.55 1019.52 1020.37 1020.35 1019.68 1018.17 1016.10 1015.16 1014.98 1015.34 1016.63 1016.83 1016.74 1016.62 1016.34 1015.96 1015.98 1015.89 1015.57 1015.19 1014.89 1014.45 1013.68 1013.14 1012.17 1011.84 1011.46 1011.68 1010.88 1010.51 1010.41 1010.30 1010.29 1010.46 1010.92 1010.88 1010.99 1011.49 1011.65 1012.06 1012.15 1012.28 1012.41 1012.73
1019.04 1019.61 1020.35 1020.94 1020.32 1018.88 1016.57 1015.58 1015.27 1015.47 1016.66 1017.08 1016.87 1016.94 1016.79 1016.32 1016.86 1017.00 1015.92 1015.44 1014.61 1014.18 1013.78 1013.55 1012.41 1011.86 1012.22 1011.93 1011.57 1010.96 1010.77 1010.59 1010.33 1010.35 1010.69 1010.84 1011.21 1011.61 1012.07 1012.14 1012.19 1012.45 1012.61 1013.21
1019.89 1020.48 1020.67 1020.59 1020.25 1018.67 1017.52 1016.09 1015.13 1016.21 1017.34 1017.11 1017.06 1017.21 1017.25 1017.26 1017.23 1016.67 1016.16 1015.48 1014.90 1013.98 1013.52 1013.08 1012.87 1012.65 1012.75 1012.10 1011.60 1011.40 1010.44 1010.33 1010.30 1010.42 1010.76 1010.97 1011.28 1011.66 1012.11 1012.35 1012.53 1012.95 1013.30 1013.50
1020.35 1020.54 1020.59 1020.51 1020.20 1019.23 1017.72 1016.85 1017.45 1018.28 1017.61 1017.60 1017.59 1017.43 1017.19 1016.93 1016.48 1016.09 1015.65 1015.32 1014.68 1014.41 1013.68 1013.07 1012.96 1013.15 1012.30 1012.45 1011.92 1011.36 1010.88 1010.61 1010.56 1010.81 1011.12 1011.50 1011.71 1012.08 1012.44 1012.90 1013.21 1013.20 1013.34 1013.78
1020.60 1020.29 1020.43 1020.66 1020.04 1019.09 1018.51 1018.45 1018.20 1018.14 1018.09 1017.77 1017.59 1017.30 1017.08 1016.85 1016.34 1015.69 1014.90 1014.65 1014.50 1014.01 1013.72 1013.18 1013.18 1012.76 1012.15 1011.78 1011.58 1011.38 1011.05 1010.97 1011.07 1011.29 1011.61 1011.83 1012.04 1012.69 1013.04 1013.10 1013.39 1013.58 1013.83 1014.40
1020.37 1020.40 1020.67 1020.51 1019.49 1019.14 1018.95 1018.63 1018.41 1018.36 1018.28 1017.74 1017.39 1017.03 1016.77 1016.61 1015.99 1015.57 1014.88 1014.64 1014.31 1014.05 1013.87 1013.53 1013.32 1012.79 1011.87 1011.20 1010.90 1010.79 1010.79 1010.76 1011.23 1011.50 1011.76 1011.98 1012.32 1013.22 1013.84 1013.85 1013.91 1014.12 1014.77 1015.46
1021.01 1020.76 1020.57 1020.39 1019.56 1019.12 1018.76 1018.68 1018.36 1018.04 1018.01 1017.67 1017.21 1016.88 1016.55 1016.18 1015.75 1015.24 1014.76 1014.47 1014.22 1013.65 1013.75 1013.50 1013.21 1012.72 1011.78 1010.92 1010.62 1010.69 1010.73 1011.03 1011.50 1011.84 1012.41 1012.49 1012.83 1013.67 1014.50 1014.90 1015.15 1015.25 1015.91 1015.98
1021.08 1020.73 1020.80 1020.01 1019.58 1019.69 1019.22 1018.47 1018.17 1017.76 1017.29 1016.86 1016.45 1015.97 1015.68 1015.41 1015.12 1014.57 1014.28 1013.84 1013.53 1013.23 1013.05 1013.03 1012.62 1012.12 1011.33 1010.83 1010.74 1010.84 1010.78 1011.27 1011.75 1012.27 1012.66 1012.80 1013.36 1014.00 1014.72 1015.34 1016.17 1016.52 1016.65 1016.52
Thickness
5756 5738 5725 5735 5737 5741 5741 5736 5733 5755 5769 5768 5765 5769 5785 5800 5806 5800 5797 5803 5808 5812 5829 5834 5828 5826 5826 5826 5821 5819 5811 5805 5797 5790 5784 5780 5779 5777 5775 5775 5773 5765 5755 5745
5736 5726 5747 5749 5748 5740 5737 5731 5732 5755 5768 5769 5762 5765 5783 5792 5797 5803 5806 5806 5809 5815 5824 5825 5827 5824 5822 5825 5825 5819 5813 5805 5799 5794 5789 5783 5778 5775 5775 5774 5769 5757 5746 5735
5727 5743 5757 5753 5749 5739 5739 5736 5745 5744 5759 5761 5750 5753 5766 5788 5793 5801 5812 5818 5820 5820 5821 5823 5823 5827 5824 5824 5821 5817 5811 5802 5799 5795 5784 5776 5771 5766 5764 5761 5757 5745 5736 5724
5733 5751 5753 5749 5742 5747 5736 5761 5757 5752 5738 5713 5742 5712 5740 5760 5775 5790 5803 5815 5817 5823 5825 5827 5829 5825 5827 5822 5819 5814 5807 5804 5798 5792 5782 5776 5766 5759 5760 5758 5747 5743 5731 5720
5730 5744 5745 5739 5752 5760 5745 5766 5753 5749 5728 5728 5728 5710 5729 5751 5764 5783 5798 5809 5812 5809 5827 5826 5829 5828 5821 5819 5817 5814 5806 5796 5793 5786 5782 5774 5765 5760 5755 5749 5740 5733 5725 5715
5738 5759 5756 5754 5767 5769 5768 5755 5735 5718 5709 5688 5718 5711 5714 5734 5750 5770 5791 5808 5810 5813 5811 5825 5825 5824 5818 5814 5812 5810 5803 5793 5785 5777 5774 5770 5763 5753 5750 5741 5735 5725 5715 5707
5731 5743 5759 5768 5756 5759 5744 5715 5681 5686 5675 5686 5717 5707 5715 5746 5759 5770 5778 5793 5800 5805 5803 5803 5813 5811 5813 5809 5805 5800 5796 5787 5784 5777 5771 5765 5760 5751 5744 5739 5731 5718 5709 5700
5706 5706 5748 5764 5754 5744 5741 5719 5679 5682 5670 5684 5710 5710 5730 5764 5766 5770 5780 5788 5801 5799 5801 5798 5798 5798 5804 5800 5797 5793 5788 5782 5778 5770 5761 5757 5753 5743 5739 5730 5720 5711 5703 5699
5704 5713 5751 5761 5762 5755 5734 5711 5721 5688 5685 5679 5693 5721 5747 5760 5766 5771 5779 5784 5787 5793 5794 5795 5795 5793 5791 5791 5791 5790 5784 5773 5765 5759 5754 5750 5744 5737 5730 5722 5715 5710 5698 5690
5724 5705 5739 5747 5756 5748 5737 5732 5697 5679 5680 5683 5687 5697 5704 5740 5750 5758 5764 5763 5772 5781 5785 5790 5791 5791 5788 5787 5784 5779 5773 5764 5757 5747 5743 5739 5733 5727 5721 5716 5709 5700 5694 5686
5724 5710 5715 5735 5718 5717 5712 5696 5693 5685 5676 5665 5666 5686 5722 5733 5738 5747 5748 5749 5753 5761 5769 5779 5783 5787 5788 5783 5774 5771 5763 5754 5747 5740 5735 5728 5717 5714 5705 5698 5691 5686 5680 5675
5712 5694 5691 5710 5719 5724 5713 5698 5685 5663 5672 5663 5659 5680 5734 5729 5729 5732 5733 5741 5748 5755 5763 5765 5774 5776 5776 5771 5766 5759 5747 5741 5736 5731 5721 5713 5708 5701 5695 5684 5685 5680 5674 5666
5705 5681 5664 5680 5696 5707 5694 5694 5696 5675 5660 5663 5657 5673 5737 5722 5721 5724 5732 5735 5740 5748 5756 5761 5762 5763 5759 5757 5750 5741 5739 5730 5727 5720 5714 5703 5693 5689 5685 5682 5674 5674 5668 5663
5695 5669 5666 5652 5672 5679 5678 5681 5688 5676 5648 5655 5658 5675 5707 5706 5703 5709 5713 5718 5721 5726 5734 5741 5746 5751 5755 5755 5737 5727 5719 5707 5692 5688 5693 5686 5684 5683 5681 5678 5675 5670 5663 5653
5674 5664 5669 5671 5674 5678 5677 5677 5680 5668 5668 5652 5670 5670 5683 5689 5685 5689 5698 5708 5713 5717 5721 5724 5726 5731 5740 5739 5730 5725 5718 5706 5696 5673 5653 5646 5671 5672 5671 5669 5667 5662 5655 5646
5658 5652 5657 5658 5666 5662 5661 5673 5675 5676 5671 5665 5664 5667 5667 5676 5678 5679 5680 5686 5690 5695 5702 5709 5714 5718 5722 5723 5720 5717 5711 5706 5704 5688 5681 5669 5657 5658 5658 5651 5654 5651 5644 5637
5646 5639 5633 5630 5648 5649 5637 5661 5665 5666 5660 5656 5644 5652 5658 5658 5659 5658 5661 5666 5672 5677 5683 5691 5697 5698 5700 5703 5705 5707 5707 5702 5697 5687 5673 5663 5658 5652 5650 5647 5645 5641 5635 5628
5635 5627 5618 5613 5628 5614 5649 5662 5665 5650 5646 5646 5650 5654 5655 5653 5655 5651 5653 5654 5660 5662 5665 5671 5677 5680 5682 5680 5688 5688 5684 5685 5684 5679 5668 5660 5651 5650 5646 5641 5636 5631 5626 5617
5632 5618 5606 5601 5598 5616 5643 5650 5649 5643 5629 5635 5635 5640 5643 5646 5644 5640 5645 5647 5644 5645 5652 5656 5663 5664 5665 5660 5669 5671 5669 5668 5668 5665 5657 5657 5653 5645 5640 5632 5628 5622 5616 5606
5622 5614 5604 5589 5594 5591 5625 5644 5650 5644 5612 5627 5625 5623 5625 5628 5608 5611 5625 5628 5634 5638 5643 5644 5651 5654 5650 5650 5652 5657 5657 5659 5661 5659 5654 5650 5644 5637 5629 5625 5620 5613 5606 5595
5601 5597 5597 5589 5588 5598 5614 5630 5641 5609 5602 5617 5615 5611 5607 5603 5602 5609 5611 5615 5620 5628 5631 5636 5636 5636 5636 5641 5645 5647 5654 5653 5655 5652 5646 5641 5636 5630 5623 5617 5611 5602 5594 5586
5599 5594 5589 5586 5583 5581 5611 5614 5601 5593 5601 5603 5601 5600 5600 5600 5601 5603 5604 5605 5609 5610 5620 5625 5621 5620 5628 5627 5632 5637 5641 5643 5643 5640 5634 5628 5624 5619 5614 5606 5599 5593 5586 5577
5591 5594 5585 5580 5577 5592 5596 5589 5592 5590 5587 5589 5589 5590 5589 5588 5589 5592 5597 5597 5599 5601 5605 5610 5609 5614 5619 5624 5626 5627 5630 5630 5628 5626 5622 5618 5614 5608 5602 5599 5592 5586 5576 5564
5596 5587 5573 5576 5590 5585 5580 5580 5581 5578 5575 5576 5577 5575 5574 5572 5575 5575 5582 5585 5586 5590 5590 5593 5596 5603 5613 5621 5625 5625 5624 5624 5619 5618 5617 5614 5610 5597 5588 5586 5582 5576 5563 5550
5579 5572 5564 5562 5577 5573 5574 5572 5570 5569 5564 5563 5563 5560 5559 5560 5564 5568 5572 5576 5577 5582 5581 5584 5589 5595 5605 5616 5619 5617 5618 5616 5611 5609 5606 5606 5601 5587 5577 5571 5565 5560 5548 5540
5562 5558 5553 5562 5569 5556 5559 5562 5558 5558 5559 5557 5555 5557 5556 5554 5556 5560 5567 5571 5573 5575 5580 5579 5586 5594 5604 5610 5611 5610 5611 5606 5602 5599 5600 5598 5591 5581 5573 5564 5553 5544 5537 5532